STARLINK-1649

Last updated on Fri Nov 06 2020 00:02:03 GMT+0000 (Coordinated Universal Time)

1 46552U 20070W 20310.83334491 -.00016684 00000-0 -17661-3 0 9993 2 46552 53.0029 292.9714 0001117 78.1060 5.3345 15.62772898 5582
UTC large
Height (km)
Speed (km/s)
/
Latitude / Longitude
Inclination (degrees)
Orbital Period (minutes)
Azimuth
Elevation
Range (km)
Doppler Factor

Next 0 passes for location: London (51.5072 / 0.1276)

Sorry there are no passes over London.